CZ-3B DEB, 40162

Orbit data source: Space-Track

CZ-3B DEB, 40162 is space debris in HEO originally from a launch on Sat, 04 Sep 2010 UTC launched from the Xichang Space Center, China (XSC). Debris objects in space refer to the collection of defunct objects orbiting the Earth. Examples of debris include non-operational satellites, rocket bodies, and fragments generated from explosions, collisions, or faulty payload assembly.

Loading next visibility...
Identifier
40162, 2010-042P
Orbit
HEO
Country
Flag of CNCN / PRC
Related business
Manufacturer
CALT
Mission
Spacecraft
Bus & Motor
Unknown
Mass
Unknown
Launch date (UTC)
2010-09-04 (15 years ago)
Launch vehicle
Unknown
Launch site
Xichang Space Center, China (XSC)
Object type
Payload
Rocket body
Debris
Shape & HBR
Unknown
Radar Cross Section
Medium (>0.1 m² and <1 m²)

Expand to show TLE details & history
Last TLE update: 21 hours ago

TLE from 21 hours ago
0 CZ-3B DEB
1 40162U 10042P   25259.20594931  .00000051  00000-0  00000-0 0  9992
2 40162  27.2403 321.8919 7221129 247.5575  25.3882  1.92073307 82948
Epoch: 2025-09-16T04:56Z
TLE epoch observation values (Epoch: 2025-09-16T04:56:34.02Z)
Latitude
-0.00001°
Longitude
-107.58741°
Altitude
11,737.66 km
Speed
5.424 km/s
True Right ascension
21h 27m 48s
True Declination
0° 00' 00"
Sunlit
Object was in daylight at epoch
Visualization orbit readout
Latitude
Unknown
Longitude
Unknown
Altitude
Unknown
Speed
Unknown
Apparent Right ascension
Unknown
Apparent Declination
Unknown
Sunlit
N/A
Visualization observer readout
Local Sidereal Time
19:09:24
Azimuth
Unknown
Elevation
Unknown
Doppler factor
Unknown
Orbital elements
Apogee altitude
40,705.724 km
Perigee altitude
1,219.505 km
Semi-major axis
27,340.751 km
Eccentricity
0.72211
Inclination
27.2403°
RAAN
321.8919°
Arg. of periapsis
247.5575°
True anomaly
112.34305°
Mean anomaly
25.3882°
Eccentric anomaly
61.87777°
Mean motion
0.4801 °/min
Orbital period
749.85 mins
BSTAR
0
Loading maneuver chart data...
Computing Atmospheric mass density...
Loading historical data...
Loading historical data...
Loading historical data...
Loading historical data...
Loading historical data...
Loading historical data...
Loading historical data...

Documentation

Showing up to 5 results
|